DateTimeUTC,F1_A11,F1_S11,BsB_S11,BsG_S11,BsR_S11,BbsB_S11,BbsG_S11,BbsR_S11,BaB_A11,BaG_A11,BaR_A11,Tu_S11,T_S11,Uu_S11,U_S11,P_S11,T1_A11
2021-12-23T04:00:00Z,00000200,21000000,,,,,,,-000.04,-000.11,-000.20,20.4,27.2,,00.0,0666.2,31.2
2021-12-23T04:01:00Z,00000200,21000000,,,,,,,0000.06,0000.12,-000.14,20.4,27.3,,00.0,0666.2,31.2
2021-12-23T04:02:00Z,00000200,21000000,,,,,,,0000.04,-000.23,-000.04,20.4,27.3,,00.0,0666.2,31.2
2021-12-23T04:03:00Z,00000200,61000000,,,,,,,0000.08,-000.07,0000.13,20.4,27.3,,00.0,0666.2,31.2
2021-12-23T04:04:00Z,00000200,41000000,-000.16,0000.14,0000.35,0000.57,-000.05,0000.14,-000.46,-000.25,0000.02,20.4,27.1,,00.0,0667.0,31.2
2021-12-23T04:05:00Z,00000200,01000000,0000.06,-000.04,0000.02,-000.05,0000.27,-000.29,-000.16,-000.17,-000.34,20.4,27.0,,00.0,0667.0,31.2
2021-12-23T04:06:00Z,00000200,01000000,-000.08,0000.15,0000.08,-000.52,0000.16,-000.13,-000.43,-000.16,0000.24,20.3,27.0,,00.0,0667.0,31.1
2021-12-23T04:07:00Z,00000200,01000000,0000.36,0000.03,-000.37,0000.52,-000.13,-000.12,0000.10,-000.06,-000.29,20.2,26.9,,00.0,0667.0,31.1
2021-12-23T04:08:00Z,00000200,01000000,-000.41,0000.11,-000.20,-000.18,-000.07,-000.12,-000.54,-000.28,-000.12,20.1,26.9,,00.0,0666.9,31.1
2021-12-23T04:09:00Z,00000200,01000000,-000.40,0000.19,-000.25,0000.80,-000.43,0000.14,0000.17,0000.07,-000.24,20.0,26.8,,00.0,0666.9,31.1
2021-12-23T04:10:00Z,00000200,01000000,0000.30,-000.00,-000.10,0000.44,-000.12,-000.22,0000.04,-000.15,-000.08,19.9,26.7,,00.0,0666.9,31.1
2021-12-23T04:11:00Z,00000200,01000000,0000.26,-000.01,-000.30,-000.09,0000.23,-000.35,0000.17,0000.04,0000.51,19.9,26.7,,00.0,0666.9,31.1
2021-12-23T04:12:00Z,00000200,01000000,-000.03,0000.00,-000.04,0000.07,-000.26,0000.22,0000.22,0000.34,0000.09,19.9,26.7,,00.0,0666.8,31.1
2021-12-23T04:13:00Z,00000200,01000000,-000.04,-000.10,0000.14,0001.12,0000.19,0000.09,0000.35,0000.36,0000.08,19.9,26.6,,00.0,0666.8,31.1
2021-12-23T04:14:00Z,00000200,01000000,0000.13,-000.14,0000.05,-000.19,-000.08,0000.11,0000.33,-000.10,-000.01,19.9,26.6,,00.0,0666.8,31.1
2021-12-23T04:15:00Z,00000200,01000000,-000.42,0000.29,0000.05,0000.09,-000.31,0000.23,0000.31,0000.41,0000.41,20.0,26.6,,00.0,0666.8,31.1
2021-12-23T04:16:00Z,00000200,01000000,-000.09,0000.12,-000.39,0000.05,0000.02,-000.29,0000.52,0000.36,0000.19,20.0,26.6,,00.0,0666.8,31.2
2021-12-23T04:17:00Z,00000200,01000000,0000.50,-000.18,-000.06,-000.00,-000.06,0000.16,0000.32,0000.59,0000.22,20.1,26.7,,00.0,0666.8,31.1
2021-12-23T04:18:00Z,00000200,01000000,0000.67,0000.04,0000.27,0000.26,0000.32,0000.03,-000.09,-000.23,0000.17,20.1,26.7,,00.0,0666.8,31.1
2021-12-23T04:19:00Z,00000200,01000000,0000.36,0000.28,0000.15,0000.68,0000.23,-000.43,-000.09,0000.10,-000.32,20.2,26.7,,00.0,0666.8,31.1
2021-12-23T04:20:00Z,00000200,01000000,0000.15,0000.26,0000.07,-000.07,0000.01,-000.05,-000.32,-000.48,-000.02,20.2,26.7,,00.0,0666.7,31.2
2021-12-23T04:21:00Z,00000200,01000000,-000.30,-000.08,0000.09,0000.64,-000.33,0000.04,-000.23,-000.33,-000.20,20.2,26.7,,00.0,0666.7,31.1
2021-12-23T04:22:00Z,00000200,01000000,0000.59,0000.35,-000.39,0000.48,-000.10,-000.18,-000.33,-000.12,-000.24,20.2,26.7,,00.0,0666.7,31.1
2021-12-23T04:23:00Z,00000200,01000000,0000.21,0000.14,-000.22,0000.50,0000.14,0000.15,0000.11,0000.06,0000.19,20.2,26.7,,00.0,0666.6,31.2
2021-12-23T04:24:00Z,00000200,01000000,0000.27,0000.14,-000.09,0000.35,-000.33,-000.20,0000.56,0000.64,0000.29,20.1,26.7,,00.0,0666.6,31.1
2021-12-23T04:25:00Z,00000200,01000000,-000.34,0000.03,0000.18,0000.18,0000.10,-000.07,0000.15,0000.11,0000.06,20.0,26.6,,00.0,0666.6,31.1
2021-12-23T04:26:00Z,00000200,01000000,0000.08,0000.19,0000.13,0000.41,-000.38,-000.05,0000.29,0000.29,-000.06,20.0,26.6,,00.0,0666.6,31.1
2021-12-23T04:27:00Z,00000200,01000000,0000.41,-000.02,0000.38,0000.27,0000.01,0000.01,0000.39,0000.78,0000.45,20.0,26.5,,00.0,0666.6,31.1
2021-12-23T04:28:00Z,00000200,01000000,-000.70,-000.02,-000.48,-000.18,-000.08,-000.03,0000.37,0000.16,0000.67,20.0,26.5,,00.0,0666.6,31.1
2021-12-23T04:29:00Z,00000200,01000000,-000.07,0000.04,-000.13,0000.36,-000.19,-000.32,0000.47,0000.37,-000.00,20.0,26.5,,00.0,0666.5,31.1
2021-12-23T04:30:00Z,00000200,01000000,-000.35,0000.06,0000.20,0000.02,0000.12,0000.03,0000.12,0000.30,0000.39,20.1,26.6,,00.0,0666.5,31.1
2021-12-23T04:31:00Z,00000200,01000000,-000.12,-000.29,-000.04,0000.20,-000.21,0000.12,0000.20,0000.44,0000.04,20.1,26.6,,00.0,0666.5,31.1
2021-12-23T04:32:00Z,00000200,01000000,0000.26,-000.23,0000.18,-000.22,-000.16,0000.07,0000.37,-000.17,0000.21,20.2,26.6,,00.0,0666.5,31.1
2021-12-23T04:33:00Z,00000200,01000000,0000.59,0000.03,0000.06,-000.15,-000.09,-000.12,0000.05,-000.08,0000.05,20.2,26.6,,00.0,0666.5,31.2
2021-12-23T04:34:00Z,00000200,01000000,0000.29,0000.03,0000.09,0000.34,-000.22,0000.08,0000.53,0000.37,-000.03,20.2,26.6,,00.0,0666.5,31.1
2021-12-23T04:35:00Z,00000200,01000000,-000.26,-000.20,0000.32,0000.15,-000.43,-000.05,-000.16,0000.46,0000.38,20.3,26.6,,00.0,0666.5,31.1
2021-12-23T04:36:00Z,00000200,01000000,-000.17,-000.07,-000.34,-000.01,-000.21,-000.48,-000.35,-000.57,-000.26,20.3,26.7,,00.0,0666.5,31.2
2021-12-23T04:37:00Z,00000200,01000000,0000.19,-000.03,-000.23,0000.61,-000.03,-000.13,0000.02,-000.31,-000.19,20.3,26.7,,00.0,0666.5,31.2
2021-12-23T04:38:00Z,00000200,01000000,0000.50,-000.14,-000.01,0000.35,-000.25,-000.10,-000.32,-000.15,-000.30,20.4,26.7,,00.0,0666.5,31.2
2021-12-23T04:39:00Z,00000200,01000000,-000.04,0000.18,-000.19,0000.27,-000.45,-000.11,-000.78,-000.56,-000.41,20.4,26.7,,00.0,0666.6,31.2
2021-12-23T04:40:00Z,00000200,01000000,0000.30,0000.17,0000.14,0000.61,-000.02,0000.04,-000.67,-000.64,-000.65,20.4,26.7,,00.0,0666.6,31.2
2021-12-23T04:41:00Z,00000200,01000000,0000.19,0000.09,0000.47,0000.15,-000.09,-000.37,-000.87,-000.91,-000.16,20.3,26.7,,00.0,0666.6,31.2
2021-12-23T04:42:00Z,00000200,01000000,-000.40,0000.08,0000.07,-000.22,0000.03,-000.07,-000.13,-000.48,-000.76,20.3,26.7,,00.0,0666.7,31.2
2021-12-23T04:43:00Z,00000200,01000000,0000.53,0000.08,-000.32,-000.13,0000.03,-000.23,-000.60,-000.25,0000.15,20.3,26.7,,00.0,0666.6,31.2
2021-12-23T04:44:00Z,00000200,01000000,0000.56,-000.08,-000.02,0000.06,0000.26,-000.23,-000.11,-000.18,-000.14,20.3,26.7,,00.0,0666.6,31.2
2021-12-23T04:45:00Z,00000200,01000000,0000.50,0000.06,0000.19,-000.22,0000.20,-000.36,0000.34,0000.19,0000.03,20.4,26.7,,00.0,0666.6,31.2
2021-12-23T04:46:00Z,00000200,01000000,0000.87,0000.26,0000.03,0000.93,-000.02,-000.21,0000.20,0000.36,-000.01,20.4,26.7,,00.0,0666.6,31.2
2021-12-23T04:47:00Z,00000200,01000000,-000.01,0000.02,0000.19,-000.13,-000.21,0000.36,0000.24,0000.11,0000.43,20.4,26.7,,00.0,0666.6,31.2
2021-12-23T04:48:00Z,00000200,01000000,0000.49,0000.03,-000.26,0000.41,-000.35,-000.10,-000.07,0000.07,0000.13,20.4,26.8,,00.0,0666.6,31.2
2021-12-23T04:49:00Z,00000200,01000000,0000.39,0000.26,0000.02,-000.06,-000.31,-000.16,0000.36,0000.37,0000.08,20.4,26.8,,00.0,0666.6,31.2
2021-12-23T04:50:00Z,00000200,01000000,0000.96,0000.27,-000.17,0000.36,0000.06,-000.27,0000.67,0000.73,0000.17,20.5,26.8,,00.0,0666.6,31.2
2021-12-23T04:51:00Z,00000200,01000000,-000.04,0000.09,0000.21,0000.14,-000.21,0000.16,-000.38,-000.50,0000.05,20.5,26.8,,00.0,0666.6,31.2
2021-12-23T04:52:00Z,00000200,01000000,-000.11,-000.10,0000.22,0000.39,0000.07,0000.36,-000.39,-000.55,-000.29,20.5,26.8,,00.0,0666.5,31.2
2021-12-23T04:53:00Z,00000200,01000000,-000.17,0000.17,0000.09,0000.21,0000.13,-000.05,0000.06,0000.20,0000.06,20.6,26.8,,00.0,0666.6,31.2
2021-12-23T04:54:00Z,00000200,01000000,-000.27,0000.24,-000.09,0000.05,-000.05,-000.45,0000.03,0000.07,-000.06,20.6,26.8,,00.0,0666.6,31.2
2021-12-23T04:55:00Z,00000200,01000000,-000.21,0000.24,0000.08,0000.26,-000.46,0000.29,-000.29,-000.05,-000.06,20.5,26.8,,00.0,0666.5,31.2
2021-12-23T04:56:00Z,00000200,01000000,-000.14,0000.13,-000.00,0000.01,0000.15,0000.09,-000.01,-000.35,0000.01,20.5,26.9,,00.0,0666.5,31.2
2021-12-23T04:57:00Z,00000200,41000000,,,,,,,0000.24,0000.46,0000.03,20.5,26.9,,00.0,0666.6,31.2
2021-12-23T04:58:00Z,00000200,61000000,,,,,,,0000.18,-000.21,-000.14,20.1,26.9,,00.0,0665.5,31.2
2021-12-23T04:59:00Z,00000200,21000000,,,,,,,-000.11,0000.09,0000.08,20.1,27.0,,00.0,0665.5,31.2
